• In Hungary
  • List of Countries
  • For 7 days
  • Water Temperature
  • Satellite Maps
  • Weather Map
  • News
  • Weather Widgets
  • user-avatar
    Login

    Hourly Weather Bietigheim-Bissingen

    Today, 18 December, Monday

    Time Temperature Precipitation Wind Pressure Humidity
    00:00 -2°C° 0 mm 2 mps 747 mmHg 87%
    01:00 -1°C° 0 mm 2 mps 747 mmHg 85%
    02:00 -1°C° 0 mm 2 mps 747 mmHg 84%
    03:00 -1°C° 0 mm 3 mps 746 mmHg 82%
    04:00 -1°C° 0 mm 3 mps 746 mmHg 81%
    05:00 -1°C° 0.5 mm 3 mps 745 mmHg 84%
    06:00 -1°C° 0.5 mm 3 mps 745 mmHg 87%
    07:00 -1°C° 0 mm 3 mps 744 mmHg 90%
    08:00 -1°C° 0.5 mm 2 mps 744 mmHg 90%
    09:00 +1°C° 0.5 mm 2 mps 744 mmHg 90%
    10:00 +1°C° 0.5 mm 2 mps 744 mmHg 90%
    11:00 +3°C° 0 mm 1 mps 744 mmHg 88%
    12:00 +3°C° 0 mm 1 mps 745 mmHg 86%
    13:00 +4°C° 0 mm 1 mps 745 mmHg 85%
    14:00 +3°C° 0 mm 1 mps 745 mmHg 86%
    15:00 +2°C° 0 mm 0 mps 745 mmHg 88%
    16:00 +2°C° 0 mm 0 mps 746 mmHg 90%
    17:00 +1°C° 0 mm 0 mps 746 mmHg 91%
    18:00 +1°C° 0 mm 0 mps 747 mmHg 92%
    19:00 +1°C° 0 mm 0 mps 747 mmHg 92%
    20:00 +1°C° 0 mm 0 mps 748 mmHg 92%
    21:00 +1°C° 0 mm 0 mps 748 mmHg 92%
    22:00 +1°C° 0 mm 0 mps 749 mmHg 92%
    23:00 +1°C° 0 mm 0 mps 749 mmHg 92%

    Tomorrow, 19 December, Tuesday

    Time Temperature Precipitation Wind Pressure Humidity
    00:00 +1°C° 0 mm 0 mps 749 mmHg 92%
    01:00 +1°C° 0 mm 0 mps 750 mmHg 92%
    02:00 +1°C° 0 mm 0 mps 750 mmHg 92%
    03:00 +1°C° 0 mm 0 mps 750 mmHg 92%
    04:00 +1°C° 0 mm 0 mps 751 mmHg 92%
    05:00 +1°C° 0 mm 0 mps 751 mmHg 93%
    06:00 +1°C° 0 mm 0 mps 751 mmHg 93%
    07:00 +1°C° 0 mm 0 mps 752 mmHg 93%
    08:00 +1°C° 0 mm 0 mps 752 mmHg 92%
    09:00 +1°C° 0 mm 0 mps 753 mmHg 91%
    10:00 +1°C° 0 mm 0 mps 753 mmHg 90%
    11:00 +2°C° 0 mm 0 mps 753 mmHg 88%
    12:00 +3°C° 0 mm 1 mps 753 mmHg 86%
    13:00 +4°C° 0 mm 1 mps 753 mmHg 84%
    14:00 +3°C° 0 mm 1 mps 753 mmHg 86%
    15:00 +3°C° 0 mm 1 mps 753 mmHg 88%
    16:00 +3°C° 0 mm 1 mps 753 mmHg 90%
    17:00 +2°C° 0.2 mm 1 mps 754 mmHg 91%
    18:00 +2°C° 0.2 mm 1 mps 754 mmHg 92%
    19:00 +2°C° 0.2 mm 1 mps 754 mmHg 93%
    20:00 +2°C° 0.4 mm 1 mps 754 mmHg 93%
    21:00 +2°C° 0.4 mm 1 mps 754 mmHg 94%
    22:00 +1°C° 0.4 mm 2 mps 754 mmHg 94%
    23:00 +1°C° 0.5 mm 2 mps 754 mmHg 94%

    Day after tomorrow, 20 December, Wednesday

    Time Temperature Precipitation Wind Pressure Humidity
    00:00 +2°C° 0.5 mm 2 mps 754 mmHg 94%
    01:00 +2°C° 0.5 mm 2 mps 754 mmHg 95%
    02:00 +2°C° 0.7 mm 2 mps 753 mmHg 95%
    03:00 +2°C° 0.7 mm 2 mps 753 mmHg 95%
    04:00 +1°C° 0.7 mm 3 mps 753 mmHg 95%
    05:00 +1°C° 0.8 mm 3 mps 752 mmHg 96%
    06:00 +1°C° 0.8 mm 3 mps 752 mmHg 96%
    07:00 +1°C° 0.8 mm 3 mps 752 mmHg 96%
    08:00 +2°C° 1.1 mm 2 mps 752 mmHg 96%
    09:00 +2°C° 1.1 mm 2 mps 752 mmHg 96%
    10:00 +2°C° 1.1 mm 2 mps 752 mmHg 97%
    11:00 +2°C° 1.1 mm 2 mps 752 mmHg 97%
    12:00 +2°C° 1.1 mm 2 mps 751 mmHg 97%
    13:00 +2°C° 1.1 mm 2 mps 751 mmHg 98%
    14:00 +3°C° 1 mm 2 mps 751 mmHg 98%
    15:00 +3°C° 1 mm 2 mps 751 mmHg 98%
    16:00 +3°C° 1 mm 2 mps 751 mmHg 98%
    17:00 +4°C° 1.1 mm 1 mps 751 mmHg 98%
    18:00 +4°C° 1.1 mm 1 mps 751 mmHg 98%
    19:00 +4°C° 1.1 mm 1 mps 752 mmHg 99%
    20:00 +4°C° 0.5 mm 1 mps 752 mmHg 99%
    21:00 +4°C° 0.5 mm 1 mps 752 mmHg 99%
    22:00 +4°C° 0.5 mm 1 mps 752 mmHg 99%
    23:00 +5°C° 0.2 mm 1 mps 752 mmHg 99%

    21 December, Thursday

    Time Temperature Precipitation Wind Pressure Humidity
    00:00 +5°C° 0.2 mm 1 mps 752 mmHg 99%
    01:00 +5°C° 0.2 mm 1 mps 752 mmHg 99%
    02:00 +5°C° 0.1 mm 1 mps 752 mmHg 99%
    03:00 +5°C° 0.1 mm 1 mps 752 mmHg 99%
    04:00 +4°C° 0.1 mm 2 mps 752 mmHg 99%
    05:00 +4°C° 0.1 mm 2 mps 752 mmHg 98%
    06:00 +4°C° 0.1 mm 2 mps 752 mmHg 98%
    07:00 +4°C° 0.1 mm 2 mps 752 mmHg 98%
    08:00 +4°C° 0.1 mm 2 mps 752 mmHg 98%
    09:00 +5°C° 0.1 mm 2 mps 753 mmHg 99%
    10:00 +5°C° 0.1 mm 2 mps 753 mmHg 99%
    11:00 +4°C° 0.3 mm 3 mps 752 mmHg 98%
    12:00 +5°C° 0.3 mm 3 mps 752 mmHg 98%
    13:00 +5°C° 0.3 mm 3 mps 752 mmHg 97%
    14:00 +5°C° 0.8 mm 3 mps 752 mmHg 97%
    15:00 +5°C° 0.8 mm 4 mps 751 mmHg 97%
    16:00 +5°C° 0.8 mm 4 mps 751 mmHg 97%
    17:00 +5°C° 1.3 mm 4 mps 751 mmHg 97%
    18:00 +6°C° 1.3 mm 4 mps 751 mmHg 97%
    19:00 +6°C° 1.3 mm 4 mps 751 mmHg 97%
    20:00 +5°C° 1 mm 3 mps 752 mmHg 97%
    21:00 +5°C° 1 mm 3 mps 752 mmHg 98%
    22:00 +6°C° 1 mm 2 mps 752 mmHg 98%
    23:00 +6°C° 0.1 mm 2 mps 753 mmHg 98%

    22 December, Friday

    Time Temperature Precipitation Wind Pressure Humidity
    00:00 +6°C° 0.1 mm 2 mps 753 mmHg 98%
    01:00 +7°C° 0.1 mm 1 mps 753 mmHg 98%
    02:00 +7°C° 0 mm 1 mps 753 mmHg 98%
    03:00 +7°C° 0 mm 1 mps 753 mmHg 98%
    04:00 +7°C° 0 mm 1 mps 753 mmHg 98%
    05:00 +7°C° 0.1 mm 1 mps 753 mmHg 98%
    06:00 +7°C° 0.1 mm 1 mps 753 mmHg 98%
    07:00 +7°C° 0.1 mm 1 mps 753 mmHg 97%
    08:00 +7°C° 0 mm 1 mps 754 mmHg 97%
    09:00 +7°C° 0 mm 1 mps 754 mmHg 97%
    10:00 +7°C° 0 mm 1 mps 754 mmHg 97%
    11:00 +7°C° 0 mm 1 mps 754 mmHg 94%
    12:00 +7°C° 0 mm 2 mps 754 mmHg 92%
    13:00 +7°C° 0 mm 2 mps 754 mmHg 89%
    14:00 +6°C° 0 mm 2 mps 754 mmHg 91%
    15:00 +7°C° 0 mm 1 mps 754 mmHg 92%
    16:00 +6°C° 0 mm 1 mps 754 mmHg 94%
    17:00 +6°C° 0 mm 1 mps 754 mmHg 94%
    18:00 +5°C° 0 mm 1 mps 754 mmHg 95%
    19:00 +4°C° 0 mm 1 mps 754 mmHg 96%
    20:00 +4°C° 0 mm 1 mps 754 mmHg 96%
    21:00 +4°C° 0 mm 1 mps 754 mmHg 96%
    22:00 +4°C° 0 mm 1 mps 754 mmHg 96%
    23:00 +4°C° 0 mm 1 mps 754 mmHg 96%

    23 December, Saturday

    Time Temperature Precipitation Wind Pressure Humidity
    00:00 +3°C° 0 mm 1 mps 754 mmHg 96%
    01:00 +2°C° 0 mm 2 mps 754 mmHg 96%
    02:00 +2°C° 0 mm 2 mps 754 mmHg 96%
    03:00 +2°C° 0 mm 2 mps 754 mmHg 96%
    04:00 +3°C° 0 mm 2 mps 753 mmHg 96%
    05:00 +2°C° 0 mm 2 mps 753 mmHg 96%
    06:00 +2°C° 0 mm 2 mps 753 mmHg 95%
    07:00 +2°C° 0 mm 2 mps 754 mmHg 95%
    08:00 +2°C° 0 mm 2 mps 754 mmHg 94%
    09:00 +3°C° 0 mm 2 mps 754 mmHg 93%
    10:00 +3°C° 0 mm 2 mps 754 mmHg 92%
    11:00 +4°C° 0 mm 2 mps 754 mmHg 90%
    12:00 +4°C° 0 mm 2 mps 754 mmHg 88%
    13:00 +5°C° 0 mm 2 mps 753 mmHg 86%
    14:00 +5°C° 0 mm 2 mps 753 mmHg 88%
    15:00 +5°C° 0 mm 1 mps 753 mmHg 89%
    16:00 +5°C° 0 mm 1 mps 753 mmHg 91%
    17:00 +5°C° 0 mm 1 mps 753 mmHg 91%
    18:00 +4°C° 0 mm 1 mps 753 mmHg 92%
    19:00 +4°C° 0 mm 1 mps 753 mmHg 92%
    20:00 +4°C° 0 mm 1 mps 753 mmHg 92%
    21:00 +4°C° 0 mm 1 mps 752 mmHg 92%
    22:00 +3°C° 0 mm 1 mps 752 mmHg 92%
    23:00 +3°C° 0 mm 1 mps 752 mmHg 92%
    Show more